Tracking 19827 objects as of 21-Aug-2019
HD Live streaming from Space Station
objects crossing your sky now

COSMOS 1745

Track COSMOS 1745 now!
10-day predictions
COSMOS 1745 is classified as:


NORAD ID: 16727
Int'l Code: 1986-037A
Perigee: 969.4 km
Apogee: 1,014.0 km
Inclination: 83.0 °
Period: 104.8 minutes
Semi major axis: 7362 km
RCS: 2.3429 m2 (large)
Launch date: May 23, 1986
Source: Commonwealth of Independent States (former USSR) (CIS)
Launch site: PLESETSK MISSILE AND SPACE COMPLEX (PKMTR)
aabbcc
Your satellite tracking list
Your tracking list is empty




NASA's NSSDC Master Catalog

Two Line Element Set (TLE):
1 16727U 86037A   19232.89221128 +.00000031 +00000-0 +17596-4 0  9993
2 16727 082.9601 145.3970 0030304 312.4008 115.9313 13.74196770666846
Source of the keplerian elements: AFSPC